CAPE
206 553 532 523 468 426 651 700 653 510 340 119 4 3 1 0 0 0 0 0 0 0 4 0 5 47 44 45 40 22 0 0 0 0 0 0 0 0 0 0 0 0 0
357 559 403 521 419 372 787 734 572 488 352 160 6 5 4 0 0 0 0 0 1 6 20 57 18 34 49 51 39 14 0 0 0 0 0 0 0 0 0 0 0 0 0
437 481 462 493 464 419 487 547 425 407 364 174 37 12 6 0 0 0 0 0 2 9 10 15 16 25 18 4 0 0 0 0 0 0 0 0 0 0 0 0 0 11 0
451 488 440 458 391 289 138 106 218 271 263 167 53 7 4 0 0 0 0 0 2 10 3 3 3 0 0 0 0 0 0 0 0 0 0 0 0 2 0 0 0 0 2
447 513 453 465 334 141 112 73 60 77 100 100 80 61 1 0 0 0 0 0 1 1 0 0 0 0 0 0 0 0 0 0 0 0 0 0 0 13 2 0 0 0 0
490 530 538 474 325 192 112 32 27 28 98 149 276 42 0 0 0 0 0 0 0 0 0 0 0 0 0 0 0 0 0 0 0 0 0 0 13 34 19 58 47 49 65
499 579 594 496 356 231 70 53 86 84 277 437 254 37 17 5 4 0 0 0 0 0 0 0 0 0 0 0 0 0 0 0 0 0 0 0 21 13 11 0 9 77 98
452 656 695 536 391 272 83 142 198 217 184 210 123 67 34 17 26 23 0 0 0 1 4 4 1 0 0 0 0 0 0 0 0 0 0 0 2 2 0 0 42 24 21
616 657 768 612 473 317 153 114 256 214 118 50 50 28 26 33 44 60 15 0 0 0 22 15 14 13 0 0 0 0 0 0 0 0 0 0 0 0 0 72 24 14 1
677 779 681 685 557 391 286 83 272 235 155 82 48 119 123 112 118 151 71 23 1 18 38 47 61 23 0 0 0 0 0 0 0 0 0 0 0 12 37 33 33 13 10
812 863 817 674 576 388 258 109 147 250 154 137 172 155 76 51 97 231 119 58 4 61 96 68 28 0 0 0 0 0 0 0 0 0 0 6 28 58 26 8 23 11 0
1094 940 973 820 578 414 251 120 59 256 181 110 168 86 24 155 289 253 128 105 26 127 76 5 0 0 0 0 0 0 0 0 0 0 0 19 41 27 9 19 18 11 3
1154 1142 891 783 625 459 275 127 59 57 162 96 72 40 6 124 236 187 113 105 13 99 0 0 0 0 0 0 0 0 0 0 0 0 6 13 26 16 10 4 5 4 2
1253 1253 1131 891 801 552 351 169 82 34 21 54 41 35 0 9 104 106 94 60 0 0 0 0 0 0 0 0 0 0 0 0 0 0 0 0 4 2 0 0 0 0 0
1257 1321 1293 1142 973 688 476 269 142 71 9 3 11 23 12 0 4 49 67 20 0 0 0 0 0 0 0 0 0 0 0 0 0 0 0 0 0 0 0 0 0 0 0
859 1272 1426 1298 1057 816 674 459 236 114 46 0 0 3 12 0 0 27 36 5 0 0 0 0 0 0 0 0 0 0 0 0 0 0 0 0 0 0 0 0 0 0 0
3 348 1281 1359 1164 987 881 663 387 186 95 18 0 0 0 0 0 3 10 0 0 0 0 0 0 0 0 0 0 0 0 0 0 0 0 0 0 0 0 0 0 0 0
0 0 27 1134 1221 1201 1058 805 546 262 124 62 45 25 12 0 0 0 0 0 0 0 0 0 0 0 0 0 0 0 0 0 0 0 0 0 0 0 0 0 0 0 0
0 0 0 33 1001 1218 1168 948 717 537 218 93 123 112 57 12 0 0 0 0 0 0 0 0 0 0 0 0 0 0 0 0 0 0 0 0 0 0 0 0 0 0 0
0 0 0 0 39 829 1178 973 765 581 478 195 236 269 153 33 0 0 0 0 0 0 0 0 0 0 0 0 0 0 0 0 0 0 0 0 0 0 0 0 0 0 0
0 0 0 0 0 62 728 893 779 600 622 438 295 354 171 23 0 0 0 0 0 0 0 0 0 0 0 0 0 0 0 0 0 0 0 0 0 0 0 0 0 0 0
0 0 0 0 0 19 513 798 740 661 618 576 338 247 142 0 0 0 0 0 0 0 0 0 0 0 0 0 0 0 0 0 0 0 0 0 0 0 0 0 0 0 0
0 0 0 0 0 0 175 567 231 94 16 77 148 124 0 0 0 0 0 0 0 0 0 0 0 0 0 0 0 0 0 0 0 0 0 0 0 0 0 0 0 0 0
0 0 0 0 0 0 4 321 296 352 381 226 253 99 0 0 0 0 0 0 0 0 0 0 0 0 0 0 0 0 0 0 0 0 0 0 0 0 0 0 0 0 0
0 0 0 0 0 0 0 21 168 321 363 65 18 7 0 0 0 0 0 0 0 0 0 0 0 0 0 0 0 0 0 0 0 0 0 0 0 0 0 0 0 0 0
0 0 0 0 0 0 0 0 18 106 64 75 9 0 0 0 0 0 0 0 0 0 0 0 0 0 0 0 0 0 0 0 0 0 0 0 0 0 0 0 0 0 0
CIN
-337 -222 -206 -184 -182 -176 -125 -96 -79 -78 -79 -147 -0 -0 -0 -0 -0 -0 -0 -0 -0 -0 -0 -0 -5 -0 -0 -0 -4 -11 -0 -0 -0 -0 -0 -0 -0 -0 -0 -0 -0 -0 -0
-322 -227 -225 -180 -183 -172 -106 -102 -92 -94 -99 -141 -0 -0 -0 -0 -0 -0 -0 -0 -0 -0 -2 -226 -4 -0 -0 -0 -1 -15 -0 -0 -0 -0 -0 -0 -0 -0 -0 -0 -0 -0 -0
-300 -250 -226 -187 -170 -167 -145 -120 -120 -105 -104 -143 -181 -2 -0 -0 -0 -0 -0 -0 -0 -0 -1 -2 -0 -1 -9 -19 -0 -0 -0 -0 -0 -0 -0 -0 -0 -0 -0 -0 -0 -4 -0
-299 -255 -230 -192 -185 -201 -243 -244 -175 -147 -138 -155 -196 -0 -0 -0 -0 -0 -0 -0 -0 -0 -1 -0 -0 -0 -0 -0 -0 -0 -0 -0 -0 -0 -0 -0 -0 -0 -0 -0 -0 -0 -1
-302 -261 -239 -200 -212 -271 -288 -312 -313 -257 -215 -200 -193 -190 -0 -0 -0 -0 -0 -0 -0 -0 -0 -0 -0 -0 -0 -0 -0 -0 -0 -0 -0 -0 -0 -0 -0 -1 -1 -0 -0 -0 -0
-288 -261 -224 -206 -226 -256 -290 -392 -389 -363 -243 -195 -151 -236 -0 -0 -0 -0 -0 -0 -0 -0 -0 -0 -0 -0 -0 -0 -0 -0 -0 -0 -0 -0 -0 -0 -22 -2 -2 -127 -21 -133 -105
-269 -231 -208 -199 -218 -253 -348 -363 -291 -285 -172 -131 -163 -265 -279 -194 -121 -0 -0 -0 -0 -0 -0 -0 -0 -0 -0 -0 -0 -0 -0 -0 -0 -0 -0 -0 -8 -3 -0 -0 -1 -69 -76
-248 -187 -171 -182 -201 -230 -342 -288 -231 -213 -217 -190 -214 -240 -266 -279 -245 -225 -0 -0 -0 -0 -0 -0 -0 -0 -0 -0 -0 -0 -0 -0 -0 -0 -0 -0 -4 -1 -0 -0 -40 -0 -1
-182 -160 -135 -159 -177 -210 -298 -323 -201 -221 -274 -319 -304 -319 -306 -274 -227 -183 -217 -0 -0 -0 -134 -102 -67 -0 -0 -0 -0 -0 -0 -0 -0 -0 -0 -0 -0 -0 -0 -178 -0 -0 -0
-152 -125 -139 -135 -152 -189 -213 -367 -210 -223 -264 -314 -326 -252 -226 -216 -190 -156 -182 -214 -43 -169 -128 -101 -109 -82 -0 -0 -0 -0 -0 -0 -0 -0 -0 -0 -0 -0 -4 -0 -0 -0 -1
-112 -104 -102 -121 -139 -184 -221 -339 -302 -217 -267 -273 -243 -250 -296 -304 -245 -146 -180 -200 -44 -145 -113 -117 -130 -0 -0 -0 -0 -0 -0 -0 -0 -0 -0 -0 -0 -105 -0 -1 -0 -0 -0
-96 -96 -75 -98 -139 -175 -234 -337 -395 -216 -244 -294 -244 -312 -374 -240 -176 -164 -190 -173 -229 -135 -145 -66 -0 -0 -0 -0 -0 -0 -0 -0 -0 -0 -0 -1 -0 -0 -4 -2 -0 -0 -0
-107 -75 -102 -107 -122 -165 -241 -326 -385 -372 -261 -305 -327 -359 -432 -264 -196 -199 -216 -200 -265 -172 -0 -0 -0 -0 -0 -0 -0 -0 -0 -0 -0 -0 -0 -1 -0 -1 -2 -0 -0 -0 -1
-99 -105 -95 -103 -111 -163 -211 -299 -370 -429 -429 -366 -365 -367 -0 -151 -275 -262 -255 -259 -0 -0 -0 -0 -0 -0 -0 -0 -0 -0 -0 -0 -0 -0 -0 -0 -1 -0 -0 -0 -0 -0 -0
-65 -69 -90 -93 -114 -143 -170 -242 -320 -395 -486 -360 -427 -403 -408 -0 -163 -307 -287 -327 -0 -0 -0 -0 -0 -0 -0 -0 -0 -0 -0 -0 -0 -0 -0 -0 -0 -0 -0 -0 -0 -0 -0
-83 -70 -66 -85 -110 -127 -149 -193 -262 -323 -409 -0 -0 -149 -438 -0 -0 -309 -298 -162 -0 -0 -0 -0 -0 -0 -0 -0 -0 -0 -0 -0 -0 -0 -0 -0 -0 -0 -0 -0 -0 -0 -0
-4 -113 -72 -74 -81 -102 -123 -151 -192 -248 -313 -399 -0 -0 -0 -0 -0 -431 -337 -0 -0 -0 -0 -0 -0 -0 -0 -0 -0 -0 -0 -0 -0 -0 -0 -0 -0 -0 -0 -0 -0 -0 -0
-0 -0 -128 -77 -76 -78 -84 -112 -152 -210 -249 -305 -320 -350 -376 -0 -0 -0 -0 -0 -0 -0 -0 -0 -0 -0 -0 -0 -0 -0 -0 -0 -0 -0 -0 -0 -0 -0 -0 -0 -0 -0 -0
-0 -0 -0 -18 -86 -75 -76 -102 -117 -166 -193 -247 -214 -239 -280 -334 -0 -0 -0 -0 -0 -0 -0 -0 -0 -0 -0 -0 -0 -0 -0 -0 -0 -0 -0 -0 -0 -0 -0 -0 -0 -0 -0
-0 -0 -0 -0 -110 -97 -90 -92 -103 -115 -151 -179 -161 -167 -206 -293 -0 -0 -0 -0 -0 -0 -0 -0 -0 -0 -0 -0 -0 -0 -0 -0 -0 -0 -0 -0 -0 -0 -0 -0 -0 -0 -0
-0 -0 -0 -0 -0 -158 -117 -89 -82 -88 -129 -129 -158 -140 -199 -265 -0 -0 -0 -0 -0 -0 -0 -0 -0 -0 -0 -0 -0 -0 -0 -0 -0 -0 -0 -0 -0 -0 -0 -0 -0 -0 -0
-0 -0 -0 -0 -0 -123 -123 -125 -113 -101 -122 -126 -153 -163 -190 -0 -0 -0 -0 -0 -0 -0 -0 -0 -0 -0 -0 -0 -0 -0 -0 -0 -0 -0 -0 -0 -0 -0 -0 -0 -0 -0 -0
-0 -0 -0 -0 -0 -0 -156 -123 -176 -217 -135 -190 -179 -194 -0 -0 -0 -0 -0 -0 -0 -0 -0 -0 -0 -0 -0 -0 -0 -0 -0 -0 -0 -0 -0 -0 -0 -0 -0 -0 -0 -0 -0
-0 -0 -0 -0 -0 -0 -11 -112 -117 -88 -66 -111 -119 -203 -0 -0 -0 -0 -0 -0 -0 -0 -0 -0 -0 -0 -0 -0 -0 -0 -0 -0 -0 -0 -0 -0 -0 -0 -0 -0 -0 -0 -0
-0 -0 -0 -0 -0 -0 -0 -198 -101 -73 -90 -192 -187 -218 -0 -0 -0 -0 -0 -0 -0 -0 -0 -0 -0 -0 -0 -0 -0 -0 -0 -0 -0 -0 -0 -0 -0 -0 -0 -0 -0 -0 -0
-0 -0 -0 -0 -0 -0 -0 -0 -177 -100 -162 -176 -213 -0 -0 -0 -0 -0 -0 -0 -0 -0 -0 -0 -0 -0 -0 -0 -0 -0 -0 -0 -0 -0 -0 -0 -0 -0 -0 -0 -0 -0 -0
Wind_Speed
5 11 12 12 12 12 12 12 12 12 12 12 12 12 13 13 14 15 15 15 15 16 15 14 13 13 13 13 13 13 13 14 14 15 16 17 18 18 17 18 19 18 17
10 11 12 11 11 12 13 13 12 12 13 13 12 12 13 14 14 15 15 14 14 15 15 15 12 12 13 14 15 14 14 14 14 15 16 16 17 18 18 18 18 19 17
10 10 11 10 10 11 11 12 13 12 12 13 13 13 13 14 15 15 14 14 14 14 14 14 14 13 13 14 15 15 14 15 15 16 16 16 17 18 18 18 18 19 16
10 9 9 10 11 10 10 11 11 12 12 12 13 13 14 15 15 15 15 14 14 13 13 13 13 13 13 14 15 14 14 15 16 16 15 15 17 19 18 18 18 19 18
8 8 10 10 10 10 10 11 11 11 12 12 13 14 14 15 15 15 15 15 15 13 13 13 13 13 14 14 15 14 15 16 17 16 15 15 17 18 19 19 19 18 18
5 6 8 8 8 8 9 10 11 11 12 13 13 14 14 15 15 15 15 15 15 14 14 14 14 14 14 14 15 15 16 17 17 17 15 15 17 19 20 20 22 21 18
3 4 6 6 6 7 8 9 10 11 12 12 13 13 13 14 15 15 15 15 15 15 14 14 14 14 14 15 15 16 16 17 17 15 16 17 18 20 20 21 21 20 21
3 4 3 5 4 4 6 7 9 10 11 12 12 12 13 13 14 14 14 14 14 14 14 14 14 15 15 16 16 17 16 16 17 16 16 17 18 19 20 20 19 20 21
2 3 3 2 2 3 4 5 6 7 9 10 11 12 12 12 12 12 13 13 13 13 14 14 14 15 16 17 17 17 17 16 16 17 18 18 19 19 19 18 18 19 20
3 3 4 3 2 0 2 3 4 5 6 7 9 9 10 10 10 11 11 12 12 13 13 13 14 15 16 17 18 17 17 17 17 18 19 19 18 18 18 18 18 19 20
5 6 6 5 4 4 2 1 1 2 3 4 5 6 7 7 7 8 9 10 11 12 12 13 14 14 15 17 18 18 18 18 19 19 20 19 18 17 18 19 19 19 19
6 7 7 7 7 6 5 4 2 1 1 1 3 4 5 7 7 7 7 7 9 10 11 13 13 14 16 16 18 19 19 19 19 20 19 17 17 18 19 19 19 19 19
6 6 7 7 7 7 7 6 5 5 4 3 2 2 4 5 5 5 5 6 8 9 11 12 13 14 15 16 18 18 18 19 19 20 18 17 17 18 19 19 19 19 19
8 8 7 7 7 8 8 8 7 7 6 6 6 5 5 5 5 4 4 5 6 8 10 11 12 14 16 16 17 18 17 17 17 18 18 17 17 17 17 18 18 19 19
16 12 9 8 8 8 9 9 9 8 8 8 7 7 7 7 6 5 4 5 6 7 9 11 12 14 16 17 18 18 17 16 16 17 17 16 16 16 17 17 18 19 20
18 17 15 13 11 10 10 10 10 10 10 8 8 8 8 8 8 7 6 7 7 6 8 9 12 14 16 17 17 18 16 15 15 15 16 16 16 16 17 18 18 19 20
20 20 18 16 16 14 13 13 12 11 11 10 10 8 8 8 7 8 7 7 6 6 7 10 12 14 15 16 16 16 15 14 13 14 14 15 15 16 16 18 19 20 21
22 21 20 20 19 17 16 16 15 14 12 11 10 9 8 7 7 8 7 6 6 6 7 9 12 15 16 16 15 15 14 13 12 12 13 14 14 15 17 18 19 20 22
27 25 23 19 19 20 20 19 18 16 14 14 11 10 9 8 8 8 7 6 6 6 7 9 13 15 16 17 16 15 15 14 11 10 11 12 13 14 16 18 19 21 23
39 32 26 23 21 20 23 23 21 20 18 17 15 13 11 10 9 8 8 7 6 8 10 11 14 16 16 16 16 16 17 15 11 10 11 12 14 15 16 18 21 23 24
41 40 34 28 25 23 23 24 25 22 21 21 19 17 14 14 12 11 9 7 8 8 8 10 13 15 15 13 14 16 17 16 14 13 12 13 13 15 17 19 22 24 26
38 37 35 35 30 28 27 25 28 27 26 24 22 20 17 15 14 13 12 10 9 8 8 9 10 14 15 11 13 14 14 15 15 15 14 14 14 15 17 21 24 26 27
39 37 36 33 31 30 30 29 30 27 29 27 25 23 21 18 18 17 15 12 11 10 10 9 9 11 13 13 11 13 15 14 15 16 16 16 15 16 18 22 24 27 28
39 37 36 33 31 28 27 29 31 31 31 30 27 25 23 21 20 19 18 16 14 13 12 11 11 12 12 12 13 14 15 14 15 17 17 16 17 17 21 23 27 26 28
29 31 31 30 29 28 27 28 30 33 34 32 29 26 24 23 21 20 20 19 18 15 14 12 12 12 13 12 13 13 14 15 16 18 20 18 19 19 23 25 26 26 28
24 23 23 25 29 30 31 31 33 35 34 33 31 29 27 25 23 21 20 20 20 18 16 15 13 12 14 14 14 13 15 16 16 17 20 21 22 23 23 28 26 27 28
Wind_Direction
80 102 97 92 81 70 66 62 59 56 52 48 40 31 26 20 14 11 13 21 23 27 32 42 52 58 54 45 31 21 11 3 1 1 358 356 356 358 2 358 356 357 1
107 104 101 92 83 77 72 66 59 58 59 55 42 29 20 15 13 13 18 26 31 31 28 28 50 51 45 31 24 16 10 10 10 5 3 1 356 359 358 357 0 2 9
114 107 102 93 81 73 68 63 62 58 57 56 50 42 30 23 18 18 23 29 32 32 23 19 27 25 19 15 10 8 14 15 9 5 8 8 5 3 1 2 2 358 9
117 109 103 101 91 77 66 61 58 59 57 55 51 51 45 34 30 29 29 32 35 33 28 20 15 11 8 5 2 9 14 6 1 1 10 16 8 6 7 7 1 357 1
119 114 112 106 95 83 73 66 67 64 65 63 63 61 48 42 40 38 36 35 37 36 28 20 12 6 3 4 3 4 358 349 351 356 13 22 13 12 8 4 2 1 360
127 122 119 108 94 78 68 61 66 68 70 71 70 64 59 54 47 43 41 40 40 36 31 25 21 16 11 4 359 356 350 348 349 354 18 23 14 10 5 2 0 357 353
145 137 126 114 99 78 65 67 67 72 65 77 75 68 61 58 55 50 48 44 40 38 34 28 24 20 14 6 359 353 348 348 351 2 7 10 10 7 9 3 358 355 349
160 163 148 126 103 72 59 69 71 78 73 76 77 74 72 68 60 55 53 50 44 38 36 33 30 21 11 4 357 353 354 353 354 0 2 3 5 8 10 10 13 4 358
220 191 186 168 128 83 57 67 77 72 75 76 82 84 81 75 70 65 57 52 43 37 33 30 25 17 9 0 356 352 345 346 352 354 356 359 1 5 8 15 10 11 1
228 226 222 226 216 21 16 63 73 80 75 79 82 78 74 71 73 69 65 60 51 41 33 27 17 10 7 1 354 353 354 351 347 348 348 350 356 3 7 7 9 2 1
257 245 244 243 249 273 293 335 53 93 71 71 72 75 61 57 75 71 67 61 53 46 34 23 16 10 5 356 356 353 352 347 345 344 344 350 359 3 1 358 1 1 356
246 244 250 248 256 257 275 284 292 284 336 39 40 32 27 29 51 76 65 48 33 30 24 20 21 14 3 358 353 350 349 348 345 344 345 354 359 356 354 354 358 358 357
232 237 232 243 252 246 262 265 273 280 278 287 297 341 355 357 19 38 42 25 11 6 5 5 6 5 3 1 357 354 353 349 347 347 352 355 356 354 354 354 355 356 357
242 223 225 229 239 238 260 256 261 263 265 269 272 285 305 318 329 349 7 5 6 359 355 358 2 2 358 357 356 355 356 356 355 354 354 356 357 357 356 354 353 352 351
267 259 243 240 241 238 251 260 260 259 260 265 263 271 281 292 297 311 325 336 349 353 348 346 354 353 352 350 349 351 354 358 359 359 360 2 2 1 360 356 352 349 349
265 262 262 253 250 247 249 257 262 265 268 258 252 256 262 277 286 291 302 313 327 343 347 349 348 349 347 347 348 349 353 357 359 1 2 3 3 2 359 355 351 349 347
268 266 261 259 258 249 247 256 261 264 268 262 263 253 253 260 263 281 282 298 311 332 342 347 344 345 347 350 350 352 356 359 0 360 360 2 1 359 358 354 351 347 344
277 272 267 263 258 252 253 260 263 265 262 262 259 259 245 246 255 279 278 286 302 320 329 338 339 339 340 342 344 347 353 359 2 1 359 0 4 357 351 350 350 346 342
274 273 273 266 261 254 259 261 262 261 260 266 263 254 238 243 255 270 270 274 291 305 316 326 330 332 331 334 337 342 346 350 358 3 1 358 0 360 353 348 346 343 340
271 273 271 268 263 262 261 262 265 267 262 267 262 259 250 246 242 249 265 266 277 293 305 316 323 328 329 331 333 334 338 343 351 355 356 354 352 352 351 347 342 339 337
272 271 269 268 266 264 263 260 263 259 264 262 262 260 254 253 249 249 258 255 273 278 290 309 321 326 329 334 337 336 336 341 341 343 346 347 348 347 345 343 338 336 334
273 274 272 269 267 264 263 262 265 263 265 263 262 263 254 247 243 244 247 249 257 276 286 300 315 323 327 334 333 336 336 332 331 334 340 338 340 342 342 341 338 336 336
274 273 274 275 272 265 262 265 269 268 268 265 263 262 258 254 251 251 244 244 251 263 270 279 294 312 317 324 327 331 332 328 330 330 333 336 338 339 341 339 339 336 335
275 275 276 277 276 274 268 263 262 259 261 262 261 260 258 258 256 256 254 250 252 261 269 271 285 301 312 311 321 324 328 331 326 327 328 330 333 334 334 335 334 337 337
290 282 278 278 277 277 274 267 266 265 267 267 263 257 255 257 258 258 257 255 257 261 268 266 275 289 301 305 310 316 320 324 326 324 323 325 324 325 327 331 333 334 336
300 296 290 282 277 275 274 271 267 267 267 266 263 259 257 257 255 256 256 256 260 262 264 267 270 278 290 301 306 309 311 315 316 319 320 322 323 325 327 327 331 332 333